Hourly Data Report for July 21, 2021

SALLUIT
QUEBEC
Current Station Operator: ECCC - MSC

62°10'46.005" N
75°40'13.006" W
228.00 m
7117800
71641
MFX

Download Data

Hourly Data (July 2021)
Hourly Data Report for July 21, 2021
TIME
LST
Temp Definition
°C
Dew Point Definition
°C
Rel Hum Definition
%
Precip. Amount Definition
mm

Wind Dir Definition
10's deg

Wind Spd Definition
km/h
Visibility Definition
km
Stn Press Definition
kPa
Hmdx Definition


Wind Chill Definition


Weather Definition


00:00 6.4 6.4 100 0.0 26 18   97.85     LegendNANA
01:00 6.1 6.0 100 0.2 26 14   97.86     LegendNANA
02:00 5.9 5.8 100 0.0 20 15   97.85     LegendNANA
03:00 5.9 5.8 100 0.2 21 7   97.85     LegendNANA
04:00 5.7 5.7 100 0.0 26 3   97.90     LegendNANA
05:00 5.8 5.7 100 0.0 26 1   97.93     LegendNANA
06:00 5.8 5.8 100 0.0 28 3   97.95     LegendNANA
07:00 6.1 5.8 98 0.0 23 7   97.95     LegendNANA
08:00 6.9 6.6 98 0.0 24 12   97.96     LegendNANA
09:00 7.1 7.1 100 0.0 26 11   97.98     LegendNANA
10:00 7.0 6.8 99 0.0 31 7   97.97     LegendNANA
11:00
12:00 6.1 6.1 100 0.6 4 13   98.05     LegendNANA
13:00 8.1 4.7 79 0.0 35 17   98.06     LegendNANA
14:00 7.5 3.1 74 0.0 34 21   98.09     LegendNANA
15:00 7.6 4.4 80 0.0 35 15   98.12     LegendNANA
16:00 7.1 2.9 74 0.0 34 24   98.16     LegendNANA
17:00 5.9 2.6 79 0.0 4 23   98.20     LegendNANA
18:00 5.6 2.4 80 0.0 2 19   98.24     LegendNANA
19:00 5.8 2.4 79 0.0 36 9   98.32     LegendNANA
20:00 4.9 2.5 84 0.0 3 18   98.33     LegendNANA
21:00 4.1 2.3 88 0.0 3 13   98.37     LegendNANA
22:00 3.6 1.8 88 0.0 7 5   98.43     LegendNANA
23:00 4.7 2.5 86 0.0 20 10   98.41     LegendNANA

Notes on Data Quality.

Legend

  • E = Estimated
  • M = Missing
  • NA = Not Available*
  • [empty] = Indicates an unobserved value
Date modified: